Location: Unspecified
(51.0950°N, 12.9690°E)
Time: 15:32:26
(UTC+00:00)

Cosmos 2322 - Pass Details

Date: 28 October 2021
Orbit: 841 x 854 km, 71.0° (Epoch: 27 November)

Event Time Altitude Azimuth Distance (km) Brightness Sun altitude
Rises 17:51:33 0° 196° (SSW) 3,410 7.0 -19.7°
Reaches altitude 10° 17:54:00 10° 193° (SSW) 2,479 6.2 -20.1°
Maximum altitude 17:59:37 62° 114° (ESE) 958 3.7 -21.0°
Enters shadow 18:02:43 27° 42° (NE) 1,594 4.8 -21.5°
